Stations météo

réclame
Mon MeteoGroup
Bierset/Liege, Belgique (6478): Température de l'air & dewpoint: 12.10.2018 18:00:00 - 18.10.2018 18:00:00 (CEST)Bierset/Liege, Belgique (6478): Vitesse du vent & gusts: 12.10.2018 18:00:00 - 18.10.2018 18:00:00 (CEST)Bierset/Liege, Belgique (6478): Direction du vent: 12.10.2018 18:00:00 - 18.10.2018 18:00:00 (CEST)Bierset/Liege, Belgique (6478): reduced air pressure: 12.10.2018 18:00:00 - 18.10.2018 18:00:00 (CEST)Bierset/Liege, Belgique (6478): visibility: 12.10.2018 18:00:00 - 18.10.2018 18:00:00 (CEST)
Date & Time tt [°C] td [°C] ff [km/h] ff [knt] fx [km/h] fx [knt] dd ppp [hPa] vv [km]
18.10.2018 18:00:00 15,1 10,4 13 7 25 14 NNE 1023,4 10
18.10.2018 17:00:00 15,6 9,7 16 9 - - NE 1023,2 10
18.10.2018 16:00:00 15,8 10,4 16 9 25 14 NE 1023,5 10
18.10.2018 15:00:00 14,6 10,4 15 8 29 16 NE 1023,8 10
18.10.2018 14:00:00 14,8 10,4 15 8 - - NNE 1024,0 10
18.10.2018 13:00:00 14,0 10,8 18 10 29 16 NNE 1024,1 10
18.10.2018 12:00:00 13,1 10,9 18 10 25 14 NNE 1024,2 10
18.10.2018 11:00:00 12,9 11,5 13 7 - - N 1023,8 5
18.10.2018 10:00:00 13,1 11,8 8 4 14 8 NNE 1023,5 5
18.10.2018 09:00:00 12,9 11,8 9 5 14 8 NNE 1023,2 5
18.10.2018 08:00:00 12,6 11,5 9 5 - - N 1023,1 5
18.10.2018 07:00:00 12,6 11,5 8 4 11 6 N 1022,7 5
18.10.2018 06:00:00 12,6 11,7 8 4 11 6 N 1022,5 4,0
18.10.2018 05:00:00 12,4 11,7 8 4 - - N 1022,3 3,5
18.10.2018 04:00:00 12,0 11,3 8 4 11 6 N 1022,2 2,5
18.10.2018 03:00:00 11,6 11,0 8 4 11 6 N 1022,1 2,2
18.10.2018 02:00:00 11,4 10,9 5 3 - - NNW 1022,1 2,2
18.10.2018 01:00:00 11,2 10,7 5 3 11 6 N 1021,9 3,0
18.10.2018 00:00:00 12,0 11,3 5 3 7 4 NNW 1021,8 3,5
17.10.2018 23:00:00 13,0 11,9 5 3 - - N 1021,6 6
17.10.2018 22:00:00 13,5 11,8 8 4 7 4 NNE 1021,1 8
17.10.2018 21:00:00 14,4 12,4 4 2 11 6 N 1020,6 9
17.10.2018 20:00:00 15,0 12,5 5 3 - - N 1020,0 9
17.10.2018 19:00:00 16,2 12,6 5 3 11 6 NNW 1019,4 10
17.10.2018 18:00:00 18,0 12,5 9 5 14 8 N 1018,9 10
17.10.2018 17:00:00 18,8 12,3 8 4 - - NNW 1018,6 10
17.10.2018 16:00:00 18,9 12,6 8 4 11 6 NNW 1018,6 8
17.10.2018 15:00:00 18,5 12,2 8 4 11 6 NNW 1018,9 8
17.10.2018 14:00:00 18,2 12,6 5 3 - - N 1019,3 8
17.10.2018 13:00:00 16,8 12,2 4 2 14 8 - 1019,7 6
17.10.2018 12:00:00 15,8 11,3 9 5 14 8 NNW 1019,9 9
17.10.2018 11:00:00 15,5 9,8 2 1 - - - 1019,7 10
17.10.2018 10:00:00 12,9 9,4 9 5 25 14 SSE 1019,5 10
17.10.2018 09:00:00 12,0 9,0 8 4 22 12 SSE 1019,5 10
17.10.2018 08:00:00 12,6 8,8 5 3 - - SSE 1019,3 10
17.10.2018 07:00:00 12,9 8,6 8 4 11 6 SSE 1019,3 10
17.10.2018 06:00:00 13,4 8,5 8 4 18 10 SSW 1019,1 10
17.10.2018 05:00:00 14,1 8,3 11 6 - - SW 1018,7 10
17.10.2018 04:00:00 15,0 8,4 11 6 25 14 S 1018,5 10
17.10.2018 03:00:00 15,0 8,5 11 6 22 12 SSE 1018,7 30
17.10.2018 02:00:00 15,3 8,5 15 8 - - SE 1018,6 10
17.10.2018 01:00:00 15,1 9,1 16 9 32 18 SE 1019,0 10
17.10.2018 00:00:00 16,3 8,6 15 8 32 18 SSE 1019,1 10
16.10.2018 23:00:00 17,1 8,5 13 7 - - SE 1019,3 10
16.10.2018 22:00:00 18,0 7,2 11 6 29 16 SSE 1019,2 10
16.10.2018 21:00:00 19,8 6,7 9 5 29 16 S 1018,9 10
16.10.2018 20:00:00 20,4 7,1 8 4 - - S 1018,6 10
16.10.2018 19:00:00 21,6 7,6 5 3 11 6 S 1018,1 10
16.10.2018 18:00:00 23,0 8,1 8 4 18 10 SSE 1017,7 10
16.10.2018 17:00:00 23,6 8,4 11 6 - - SSE 1017,6 10
16.10.2018 16:00:00 23,9 8,1 8 4 14 8 SSE 1017,8 10
16.10.2018 15:00:00 23,1 8,5 8 4 14 8 SSE 1017,9 10
16.10.2018 14:00:00 23,5 9,1 4 2 - - - 1018,1 10
16.10.2018 13:00:00 21,4 10,5 5 3 32 18 SE 1018,5 10
16.10.2018 12:00:00 19,0 10,5 5 3 14 8 S 1018,8 10
16.10.2018 11:00:00 16,1 9,6 8 4 - - S 1018,9 10
16.10.2018 10:00:00 12,8 8,9 9 5 14 8 SSE 1019,1 10
16.10.2018 09:00:00 11,9 8,6 4 2 14 8 - 1019,0 10
16.10.2018 08:00:00 11,4 8,3 2 1 - - - 1018,6 10
16.10.2018 07:00:00 12,1 8,3 15 8 22 12 SE 1017,9 10
16.10.2018 06:00:00 12,0 8,6 8 4 25 14 SSE 1017,8 10
16.10.2018 05:00:00 12,8 9,1 8 4 - - SSE 1017,5 10
16.10.2018 04:00:00 13,0 9,3 8 4 25 14 SSE 1017,5 10
16.10.2018 03:00:00 13,6 9,5 4 2 22 12 - 1017,1 10
16.10.2018 02:00:00 14,8 9,6 2 1 - - - 1016,6 10
16.10.2018 01:00:00 14,6 9,8 16 9 25 14 SE 1016,2 10
16.10.2018 00:00:00 15,9 9,5 13 7 32 18 SE 1015,9 10
15.10.2018 23:00:00 16,7 9,2 13 7 - - SE 1015,7 10
15.10.2018 22:00:00 17,5 9,1 11 6 14 8 SE 1015,3 10
15.10.2018 21:00:00 18,3 8,8 11 6 14 8 SE 1014,9 10
15.10.2018 20:00:00 19,9 8,3 11 6 - - S 1014,5 10
15.10.2018 19:00:00 20,5 8,5 9 5 22 12 S 1014,2 10
15.10.2018 18:00:00 21,6 9,0 13 7 22 12 S 1013,4 10
15.10.2018 17:00:00 22,8 9,7 16 9 - - SW 1012,9 10
15.10.2018 16:00:00 22,9 8,7 16 9 29 16 SW 1012,7 10
15.10.2018 15:00:00 22,3 8,9 21 11 29 16 SSW 1012,6 10
15.10.2018 14:00:00 21,8 9,4 13 7 - - S 1012,6 10
15.10.2018 13:00:00 21,6 9,5 15 8 36 19 SSW 1012,8 10
15.10.2018 12:00:00 20,7 8,4 21 11 32 18 S 1012,7 10
15.10.2018 11:00:00 20,2 9,3 18 10 - - S 1012,3 10
15.10.2018 10:00:00 18,4 8,1 18 10 32 18 S 1012,1 10
15.10.2018 09:00:00 18,0 8,1 18 10 36 19 S 1011,6 10
15.10.2018 08:00:00 17,9 8,2 16 9 - - S 1011,0 10
15.10.2018 07:00:00 17,4 7,6 18 10 36 19 S 1010,5 10
15.10.2018 06:00:00 17,4 7,3 15 8 36 19 S 1010,2 10
15.10.2018 05:00:00 17,8 7,1 21 11 - - S 1009,7 10
15.10.2018 04:00:00 18,2 6,9 18 10 36 19 S 1009,6 10
15.10.2018 03:00:00 18,2 6,9 11 6 25 14 S 1009,9 10
15.10.2018 02:00:00 18,0 6,7 15 8 - - S 1010,0 10
15.10.2018 01:00:00 18,4 6,7 16 9 40 21 S 1009,6 10
15.10.2018 00:00:00 18,7 6,4 16 9 40 21 SSE 1009,2 10
14.10.2018 23:00:00 19,2 5,9 16 9 - - SSE 1009,1 10
14.10.2018 22:00:00 20,0 5,3 18 10 29 16 SSE 1008,7 40
14.10.2018 21:00:00 20,3 5,8 13 7 40 21 S 1008,5 10
14.10.2018 20:00:00 21,8 5,2 18 10 - - SSE 1008,2 40
14.10.2018 19:00:00 22,6 5,2 21 11 32 18 S 1007,7 10
14.10.2018 18:00:00 23,1 5,4 22 12 43 23 S 1007,3 10
14.10.2018 17:00:00 23,6 6,6 28 15 - - S 1007,2 10
14.10.2018 16:00:00 24,4 6,9 31 17 54 29 S 1007,2 10
14.10.2018 15:00:00 24,4 7,7 29 16 54 29 S 1007,5 10
14.10.2018 14:00:00 23,8 7,8 35 19 - - S 1007,7 10
14.10.2018 13:00:00 23,2 6,9 31 17 50 27 S 1008,5 10
14.10.2018 12:00:00 20,6 8,4 22 12 43 23 S 1009,1 10
14.10.2018 11:00:00 19,1 10,3 21 11 - - S 1009,8 10
14.10.2018 10:00:00 18,0 10,0 24 13 40 21 S 1010,1 10
14.10.2018 09:00:00 16,3 10,5 18 10 25 14 S 1010,2 10
14.10.2018 08:00:00 16,1 10,6 16 9 - - S 1010,1 10
14.10.2018 07:00:00 16,6 10,5 18 10 25 14 S 1010,2 40
14.10.2018 06:00:00 17,0 10,6 16 9 25 14 SSE 1010,5 10
14.10.2018 05:00:00 16,7 10,8 15 8 - - SE 1010,8 10
14.10.2018 04:00:00 17,5 10,9 15 8 36 19 SSE 1011,6 10
14.10.2018 03:00:00 17,7 11,2 13 7 22 12 SSE 1012,4 10
14.10.2018 02:00:00 17,9 11,2 9 5 - - SSE 1012,9 10
14.10.2018 01:00:00 18,9 11,2 15 8 29 16 S 1013,5 10
14.10.2018 00:00:00 19,7 11,4 21 11 29 16 S 1013,7 10
13.10.2018 23:00:00 19,9 11,3 11 6 - - S 1014,0 10
13.10.2018 22:00:00 20,3 11,6 11 6 22 12 SSE 1013,9 10
13.10.2018 21:00:00 20,9 11,9 13 7 29 16 SSE 1013,9 10
13.10.2018 20:00:00 21,8 11,9 15 8 - - SE 1014,1 10
13.10.2018 19:00:00 23,0 11,4 9 5 29 16 SSE 1014,2 10
13.10.2018 18:00:00 24,2 11,6 18 10 32 18 SSE 1014,5 10
13.10.2018 17:00:00 24,8 12,5 18 10 - - S 1015,0 10
13.10.2018 16:00:00 24,8 12,5 24 13 43 23 S 1015,7 10
13.10.2018 15:00:00 24,5 12,6 24 13 36 19 S 1016,3 10
13.10.2018 14:00:00 24,1 13,3 22 12 - - S 1017,2 10
13.10.2018 13:00:00 23,2 13,4 21 11 50 27 S 1018,2 10
13.10.2018 12:00:00 21,6 14,0 22 12 32 18 S 1018,8 40
13.10.2018 11:00:00 19,8 13,1 11 6 - - SE 1019,5 10
13.10.2018 10:00:00 18,7 13,0 11 6 32 18 SE 1019,7 10
13.10.2018 09:00:00 17,4 12,3 15 8 40 21 SSE 1019,7 10
13.10.2018 08:00:00 17,2 12,4 15 8 - - SSE 1019,7 10
13.10.2018 07:00:00 17,4 12,9 15 8 29 16 SSE 1019,9 10
13.10.2018 06:00:00 18,3 12,6 15 8 29 16 SSE 1020,2 10
13.10.2018 05:00:00 18,4 13,2 13 7 - - S 1020,6 10
13.10.2018 04:00:00 18,3 12,8 15 8 29 16 SSE 1020,4 10
13.10.2018 03:00:00 19,0 12,9 15 8 36 19 S 1020,1 10
13.10.2018 02:00:00 19,4 12,8 18 10 - - S 1020,0 10
13.10.2018 01:00:00 19,3 12,8 15 8 36 19 S 1020,1 10
13.10.2018 00:00:00 19,4 13,0 15 8 25 14 S 1020,4 10
12.10.2018 23:00:00 19,5 13,3 15 8 - - S 1020,6 10
12.10.2018 22:00:00 19,8 13,8 13 7 22 12 S 1020,3 10
12.10.2018 21:00:00 20,3 14,3 15 8 29 16 S 1020,0 10
12.10.2018 20:00:00 21,0 14,6 13 7 - - S 1019,7 10
12.10.2018 19:00:00 21,7 14,4 15 8 36 19 S 1019,2 10
12.10.2018 18:00:00 22,6 14,7 18 10 36 19 S 1019,0 10

tt = Température de l'air
td = dewpoint
ff = Vitesse du vent
fx = gusts
dd = Direction du vent
ppp = reduced air pressure
vv = visibility

stations d'obs. à proximité